Lid_Strength_Index
6 10 11 10 9 9 10 11 11 9 8 9 10 10 9 8 8 8 8 7 7 5 3 3 2 2 2 2 2 2 2 2 1 2 2 2 3 1 1 2 1 1 -0 2
9 11 8 7 7 8 10 11 11 9 8 9 10 10 9 8 8 7 7 7 7 5 4 3 3 2 2 2 2 2 2 2 1 2 2 1 1 1 1 1 1 1 2 2
10 8 6 7 8 9 10 11 11 11 10 9 10 12 10 8 7 6 8 7 7 6 5 4 3 3 3 2 2 2 2 1 1 1 1 1 1 2 2 1 1 0 0 1
9 7 7 8 9 9 12 8 9 10 12 15 11 15 11 9 8 7 8 8 7 7 6 4 4 3 3 2 2 2 2 2 1 1 2 2 3 3 3 2 1 0 0 0
9 8 9 9 9 8 10 8 10 10 12 13 12 14 11 10 10 8 7 6 6 5 5 4 4 3 3 3 3 1 2 2 2 1 2 2 3 3 2 2 1 1 1 0
8 6 7 8 7 7 7 9 10 11 13 16 13 13 14 11 10 8 7 6 5 5 4 4 4 4 4 2 2 2 2 1 1 2 1 2 2 2 3 2 2 1 1 1
9 9 7 6 9 8 9 12 17 18 18 17 11 13 13 9 8 8 8 7 6 5 5 5 5 5 4 4 2 2 2 2 1 2 2 2 2 2 2 3 2 2 2 1
13 13 8 6 8 11 11 12 16 20 20 16 11 15 13 8 7 6 6 6 5 5 5 5 5 4 4 3 2 2 2 2 1 2 2 1 1 2 2 3 3 2 1 1
13 12 7 7 7 8 10 13 10 14 14 17 14 11 9 7 7 7 7 6 6 6 6 5 5 4 3 3 3 2 2 2 2 2 2 2 2 2 2 1 2 2 1 1
10 14 8 7 6 7 10 9 14 15 19 20 16 15 14 10 9 8 7 7 6 5 5 4 4 3 3 2 3 3 3 3 2 2 2 2 2 2 2 2 2 1 1 1
9 12 11 8 10 10 10 12 12 13 14 20 20 17 9 10 9 9 8 7 7 6 5 5 4 3 3 3 3 3 3 3 3 3 3 3 2 2 1 1 2 1 1 1
9 12 15 12 8 7 9 10 11 17 16 14 16 16 8 8 7 7 7 6 7 6 5 4 4 4 3 3 3 3 3 3 2 2 3 3 2 2 3 3 2 2 2 1
9 13 17 15 11 8 10 9 9 10 13 16 18 16 7 7 8 7 7 7 6 5 5 5 5 4 4 4 3 3 3 3 3 3 3 3 3 3 4 4 3 3 3 3
6 11 13 17 14 10 12 10 9 10 16 15 15 13 10 9 9 7 7 7 6 6 5 5 5 4 3 4 3 3 3 3 3 3 4 4 4 4 4 4 4 3 3 3
9 13 12 11 10 9 10 10 10 11 11 15 14 14 11 9 9 7 6 6 6 5 5 5 5 5 4 4 4 4 3 3 3 4 5 5 5 4 4 5 4 4 4 3
9 13 12 13 10 10 11 10 10 11 11 12 11 12 8 7 7 7 7 6 6 6 5 5 4 4 5 5 5 4 4 4 4 5 5 5 5 5 4 4 4 5 4 4
11 12 14 16 11 11 15 12 11 11 10 11 15 12 8 8 8 7 7 6 6 6 6 6 6 6 7 6 6 7 6 6 5 5 5 5 5 5 5 5 5 5 5 4
11 12 13 15 13 20 12 8 8 10 9 9 10 9 8 8 7 6 5 6 6 6 7 7 7 7 7 7 7 7 7 7 7 6 5 5 5 5 5 6 6 5 5 4
8 11 15 17 17 13 11 10 12 13 12 9 10 8 8 7 7 7 5 5 6 7 8 8 8 8 8 8 8 8 8 8 7 7 6 6 6 6 6 7 6 6 5 4
8 9 13 15 18 19 13 8 7 8 15 8 8 8 8 8 12 9 5 6 8 9 9 9 9 9 8 8 8 8 9 9 9 8 7 7 7 7 7 7 6 6 5 4
12 12 14 15 17 14 9 7 6 15 14 8 7 7 8 9 8 6 7 8 8 9 10 10 9 9 10 9 9 10 9 10 9 8 7 7 7 7 6 7 7 6 5 5
13 15 16 14 17 18 7 8 13 9 7 7 7 7 7 6 6 7 9 9 9 10 9 9 9 10 9 9 9 10 10 9 8 8 9 8 8 7 7 7 6 4 5 6
14 11 13 13 13 8 7 8 6 6 7 7 6 5 5 6 8 9 10 10 10 9 9 9 9 10 9 9 9 10 9 8 9 9 9 9 8 7 7 6 5 6 6 6
9 8 11 11 9 8 7 6 5 5 6 5 5 6 6 8 9 10 10 10 10 9 9 9 9 10 9 9 9 9 9 8 8 9 9 8 8 7 5 4 5 6 6 6
9 9 10 10 9 7 7 6 5 5 5 5 5 6 7 9 10 10 10 10 9 9 9 9 9 9 9 9 8 8 8 8 8 9 9 8 7 7 8 10 8 5 6 6
8 10 12 12 8 8 7 5 5 5 5 5 5 7 7 9 10 10 10 9 9 9 9 9 9 9 8 8 8 7 6 7 8 9 8 7 6 7 7 7 8 10 10 9